Stations météo

réclame
Mon MeteoGroup
Hoorn-A, Pays-Bas (6212): Température de l'air & dewpoint: 13.03.2019 03:00:00 - 19.03.2019 03:00:00 (CET)Hoorn-A, Pays-Bas (6212): Vitesse du vent & gusts: 13.03.2019 03:00:00 - 19.03.2019 03:00:00 (CET)Hoorn-A, Pays-Bas (6212): Direction du vent: 13.03.2019 03:00:00 - 19.03.2019 03:00:00 (CET)Hoorn-A, Pays-Bas (6212): reduced air pressure: 13.03.2019 03:00:00 - 19.03.2019 03:00:00 (CET)Hoorn-A, Pays-Bas (6212): visibility: 13.03.2019 03:00:00 - 19.03.2019 03:00:00 (CET)
Date & Time tt [°C] td [°C] ff [km/h] ff [knt] fx [km/h] fx [knt] dd ppp [hPa] vv [km]
19.03.2019 03:00:00 6,2 0,9 8 4 11 6 SSW 1024,8 10
19.03.2019 02:00:00 6,2 1,5 8 4 7 4 SSW 1024,5 10
19.03.2019 01:00:00 6,1 1,5 5 3 11 6 WNW 1024,4 10
19.03.2019 00:00:00 6,2 2,0 9 5 14 8 WNW 1023,9 10
18.03.2019 23:00:00 6,3 1,5 13 7 18 10 WNW 1023,7 10
18.03.2019 22:00:00 6,4 1,5 16 9 22 12 NW 1023,3 10
18.03.2019 21:00:00 6,5 0,6 22 12 25 14 NW 1022,9 10
18.03.2019 20:00:00 6,6 1,7 18 10 25 14 WNW 1022,2 30
18.03.2019 19:00:00 6,7 1,9 26 14 29 16 NW 1021,4 10
18.03.2019 18:00:00 6,6 1,2 29 16 32 18 WNW 1020,6 10
18.03.2019 17:00:00 6,5 0,0 35 19 36 19 WNW 1020,1 10
18.03.2019 16:00:00 6,8 -0,1 37 20 36 19 WNW 1019,6 10
18.03.2019 15:00:00 6,8 0,5 39 21 40 21 WNW 1018,8 10
18.03.2019 14:00:00 6,7 1,3 35 19 40 21 WNW 1018,4 10
18.03.2019 13:00:00 6,4 1,3 42 23 43 23 WNW 1018,0 10
18.03.2019 12:00:00 6,8 0,9 41 22 40 21 NW 1017,5 10
18.03.2019 11:00:00 6,0 2,0 34 18 58 31 WNW 1016,7 10
18.03.2019 10:00:00 6,2 2,0 50 27 50 27 NW 1015,9 10
18.03.2019 09:00:00 6,8 1,6 48 26 47 25 NW 1014,6 10
18.03.2019 08:00:00 6,7 1,0 46 25 47 25 WNW 1013,5 10
18.03.2019 07:00:00 6,4 0,6 59 32 65 35 WNW 1012,7 10
18.03.2019 06:00:00 6,7 1,5 57 31 58 31 NW 1011,9 10
18.03.2019 05:00:00 6,6 0,9 52 28 50 27 WNW 1011,1 10
18.03.2019 04:00:00 6,6 2,2 54 29 54 29 WNW 1010,6 10
18.03.2019 03:00:00 6,8 3,2 50 27 58 31 WNW 1009,7 10
18.03.2019 02:00:00 6,8 2,6 50 27 54 29 WNW 1008,8 10
18.03.2019 01:00:00 6,7 3,3 46 25 47 25 WNW 1008,3 10
18.03.2019 00:00:00 6,2 2,1 50 27 58 31 WNW 1007,5 10
17.03.2019 23:00:00 5,4 3,6 50 27 61 33 WNW 1006,7 9
17.03.2019 22:00:00 7,4 3,8 52 28 54 29 SSW 1005,8 10
17.03.2019 21:00:00 6,9 2,2 52 28 54 29 SW 1005,2 10
17.03.2019 20:00:00 7,3 1,9 50 27 54 29 SW 1004,9 10
17.03.2019 19:00:00 7,0 1,3 54 29 54 29 SW 1004,2 10
17.03.2019 18:00:00 7,3 0,8 52 28 54 29 SW 1003,7 10
17.03.2019 17:00:00 7,2 1,1 54 29 61 33 SW 1002,9 10
17.03.2019 16:00:00 7,0 0,3 57 31 61 33 SW 1002,4 10
17.03.2019 15:00:00 6,7 0,8 57 31 61 33 W 1001,9 10
17.03.2019 14:00:00 6,5 1,2 59 32 58 31 SW 1001,2 10
17.03.2019 13:00:00 6,4 1,6 55 30 58 31 SW 1000,4 10
17.03.2019 12:00:00 6,4 2,0 54 29 54 29 SW 999,6 10
17.03.2019 11:00:00 6,5 1,7 55 30 58 31 W 998,8 10
17.03.2019 10:00:00 6,6 1,4 55 30 58 31 W 997,6 10
17.03.2019 09:00:00 6,7 2,3 52 28 54 29 W 996,7 10
17.03.2019 08:00:00 6,7 2,8 50 27 58 31 SW 995,5 10
17.03.2019 07:00:00 6,9 3,0 41 22 50 27 SW 995,0 10
17.03.2019 06:00:00 7,0 2,5 54 29 50 27 W 994,1 10
17.03.2019 05:00:00 7,1 2,0 57 31 54 29 W 993,7 10
17.03.2019 04:00:00 7,3 4,1 39 21 40 21 SW 993,0 10
17.03.2019 03:00:00 6,1 3,9 48 26 58 31 W 992,9 5
17.03.2019 02:00:00 7,0 5,5 78 42 94 51 S 992,3 5
17.03.2019 01:00:00 9,3 6,8 83 45 86 47 S 991,4 9
17.03.2019 00:00:00 9,6 6,5 87 47 86 47 S 992,1 10
16.03.2019 23:00:00 9,7 6,5 81 44 86 47 S 993,0 10
16.03.2019 22:00:00 9,6 6,2 78 42 79 43 S 993,7 10
16.03.2019 21:00:00 9,5 6,2 80 43 83 45 S 994,3 10
16.03.2019 20:00:00 9,5 6,2 78 42 83 45 S 995,3 10
16.03.2019 19:00:00 9,4 6,5 81 44 79 43 S 995,7 10
16.03.2019 18:00:00 9,2 6,7 74 40 76 41 S 996,0 9
16.03.2019 17:00:00 9,1 7,0 76 41 79 43 S 996,6 10
16.03.2019 16:00:00 9,2 7,2 78 42 76 41 S 997,1 9
16.03.2019 15:00:00 9,5 6,5 76 41 83 45 S 998,3 10
16.03.2019 14:00:00 9,5 6,7 80 43 83 45 S 998,5 10
16.03.2019 13:00:00 9,6 6,7 76 41 76 41 S 999,4 10
16.03.2019 12:00:00 9,0 7,7 67 36 72 39 S 1000,4 8
16.03.2019 11:00:00 9,5 7,5 76 41 76 41 S 1000,3 10
16.03.2019 10:00:00 9,6 7,6 74 40 76 41 S 1000,8 10
16.03.2019 09:00:00 9,1 7,9 61 33 65 35 SSW 1001,3 8
16.03.2019 08:00:00 7,0 6,5 35 19 40 21 SSE 1002,7 6
16.03.2019 07:00:00 6,6 4,2 15 8 18 10 SSW 1004,2 10
16.03.2019 06:00:00 7,3 3,4 16 9 32 18 SW 1005,3 10
16.03.2019 05:00:00 8,3 2,1 34 18 36 19 SW 1005,9 10
16.03.2019 04:00:00 8,3 4,3 28 15 36 19 SW 1006,6 10
16.03.2019 03:00:00 8,3 3,4 39 21 43 23 SW 1007,3 10
16.03.2019 02:00:00 8,2 3,2 48 26 50 27 W 1007,2 10
16.03.2019 01:00:00 8,2 3,3 54 29 54 29 W 1007,4 10
16.03.2019 00:00:00 8,3 3,3 55 30 58 31 W 1007,0 10
15.03.2019 23:00:00 8,5 3,7 55 30 54 29 W 1006,7 10
15.03.2019 22:00:00 8,5 4,5 54 29 58 31 W 1005,9 10
15.03.2019 21:00:00 9,0 3,6 50 27 65 35 W 1005,2 10
15.03.2019 20:00:00 8,8 4,4 44 24 54 29 SW 1004,7 10
15.03.2019 19:00:00 8,8 4,2 57 31 61 33 W 1003,9 10
15.03.2019 18:00:00 9,3 3,6 55 30 68 37 W 1002,6 10
15.03.2019 17:00:00 9,2 4,1 59 32 61 33 W 1002,1 10
15.03.2019 16:00:00 9,6 3,6 70 38 68 37 W 1001,4 10
15.03.2019 15:00:00 9,7 5,1 63 34 65 35 W 1000,9 10
15.03.2019 14:00:00 9,7 6,1 54 29 61 33 W 1000,3 10
15.03.2019 13:00:00 9,9 6,7 55 30 65 35 SW 999,6 10
15.03.2019 12:00:00 9,8 8,2 65 35 72 39 SSW 999,0 10
15.03.2019 11:00:00 10,1 8,2 74 40 72 39 SSW 998,1 10
15.03.2019 10:00:00 9,9 8,4 68 37 68 37 SSW 997,8 10
15.03.2019 09:00:00 9,3 8,7 55 30 61 33 SSW 997,6 10
15.03.2019 08:00:00 7,7 7,5 48 26 47 25 S 998,2 6
15.03.2019 07:00:00 7,0 6,4 39 21 40 21 S 999,4 8
15.03.2019 06:00:00 7,2 5,7 39 21 47 25 S 1000,5 10
15.03.2019 05:00:00 7,7 4,9 48 26 50 27 SW 1001,2 10
15.03.2019 04:00:00 8,3 5,2 42 23 47 25 SSW 1002,0 10
15.03.2019 03:00:00 8,3 4,8 44 24 47 25 SW 1002,7 10
15.03.2019 02:00:00 8,1 4,9 44 24 47 25 SW 1003,5 10
15.03.2019 01:00:00 8,2 4,5 46 25 50 27 W 1003,3 10
15.03.2019 00:00:00 8,1 4,7 44 24 54 29 SW 1003,4 10
14.03.2019 23:00:00 8,4 4,4 52 28 58 31 W 1002,9 10
14.03.2019 22:00:00 8,5 4,5 61 33 58 31 W 1002,4 10
14.03.2019 21:00:00 8,6 4,8 57 31 58 31 W 1001,5 10
14.03.2019 20:00:00 8,5 5,0 52 28 50 27 WNW 1000,6 10
14.03.2019 19:00:00 8,4 4,9 52 28 54 29 WNW 999,7 10
14.03.2019 18:00:00 8,5 4,8 59 32 61 33 WNW 998,1 10
14.03.2019 17:00:00 8,6 4,7 67 36 68 37 WNW 996,4 10
14.03.2019 16:00:00 8,5 5,4 57 31 68 37 WNW 995,5 10
14.03.2019 15:00:00 8,6 5,6 65 35 76 41 WNW 993,9 10
14.03.2019 14:00:00 9,0 4,9 68 37 83 45 WNW 992,0 10
14.03.2019 13:00:00 9,1 5,0 81 44 90 49 WNW 990,4 10
14.03.2019 12:00:00 9,6 6,4 76 41 94 51 SSW 989,5 10
14.03.2019 11:00:00 7,4 7,2 74 40 76 41 SSW 990,9 4,7
14.03.2019 10:00:00 7,0 6,8 70 38 72 39 SSW 993,0 3,2
14.03.2019 09:00:00 7,0 6,1 65 35 68 37 SSW 995,0 2,7
14.03.2019 08:00:00 6,7 5,7 63 34 65 35 SSW 997,0 7
14.03.2019 07:00:00 6,6 5,5 63 34 65 35 SSW 998,7 6
14.03.2019 06:00:00 6,8 5,3 59 32 58 31 SSW 1001,0 -
14.03.2019 05:00:00 7,2 4,6 55 30 58 31 SSW 1002,5 8
14.03.2019 04:00:00 7,6 4,3 54 29 58 31 SW 1003,8 10
14.03.2019 03:00:00 7,6 3,5 54 29 54 29 SW 1004,7 10
14.03.2019 02:00:00 7,7 3,9 52 28 58 31 SW 1005,5 10
14.03.2019 01:00:00 7,6 4,1 52 28 58 31 SW 1005,9 10
14.03.2019 00:00:00 7,7 4,4 54 29 54 29 W 1006,1 10
13.03.2019 23:00:00 7,9 5,2 55 30 61 33 W 1005,8 9
13.03.2019 22:00:00 8,1 5,3 61 33 65 35 W 1005,3 10
13.03.2019 21:00:00 8,4 4,5 48 26 54 29 W 1004,9 10
13.03.2019 20:00:00 8,5 3,5 57 31 61 33 WNW 1004,2 10
13.03.2019 19:00:00 8,7 2,6 67 36 72 39 WNW 1002,6 10
13.03.2019 18:00:00 8,6 2,9 67 36 79 43 WNW 1000,8 10
13.03.2019 17:00:00 8,8 3,0 70 38 76 41 WNW 999,1 10
13.03.2019 16:00:00 8,7 4,0 72 39 76 41 W 998,2 10
13.03.2019 15:00:00 8,5 4,5 74 40 79 43 W 997,6 10
13.03.2019 14:00:00 8,4 4,1 78 42 79 43 W 997,0 10
13.03.2019 13:00:00 8,3 4,4 70 38 76 41 SW 996,4 10
13.03.2019 12:00:00 8,3 4,2 72 39 79 43 SW 995,5 10
13.03.2019 11:00:00 8,1 4,1 68 37 72 39 SW 994,8 10
13.03.2019 10:00:00 7,9 3,8 76 41 76 41 SSW 994,4 10
13.03.2019 09:00:00 7,9 3,6 76 41 83 45 SSW 994,2 10
13.03.2019 08:00:00 7,7 3,6 78 42 83 45 SSW 993,8 10
13.03.2019 07:00:00 7,7 3,0 80 43 83 45 SSW 994,0 10
13.03.2019 06:00:00 7,5 3,1 78 42 83 45 SSW 994,6 10
13.03.2019 05:00:00 7,7 2,7 81 44 86 47 SSW 994,6 10
13.03.2019 04:00:00 7,6 2,5 80 43 83 45 SSW 995,1 10
13.03.2019 03:00:00 7,5 2,2 76 41 79 43 SSW 995,8 10

tt = Température de l'air
td = dewpoint
ff = Vitesse du vent
fx = gusts
dd = Direction du vent
ppp = reduced air pressure
vv = visibility

stations d'obs. à proximité